Location: Casco Millpond
(44.5581°N, 87.6111°W)
Time: 23:09:52
(UTC+00:00)

IGS 5A - Pass Details

Date: 16 January 2026
Orbit: 551 x 554 km, 97.4° (Epoch: 8 January)

Event Time Altitude Azimuth Distance (km) Brightness Sun altitude
Rises 12:17:56 0° 4° (N) 2,738 6.7 -11.5°
Reaches altitude 10° 12:20:11 10° 356° (N) 1,839 5.8 -11.1°
Maximum altitude 12:23:50 36° 289° (WNW) 884 3.8 -10.5°
Drops below altitude 10° 12:27:28 10° 222° (SW) 1,826 5.8 -9.8°
Sets 12:29:42 0° 214° (SW) 2,715 6.7 -9.5°
